COSMOS 252 DEB, 3843

Orbit data source: Space-Track

COSMOS 252 DEB, 3843 is space debris in LEO originally from a launch on Fri, 01 Nov 1968 UTC launched from the Tyuratam Missile And Space Complex (TTMTR). Debris objects in space refer to the collection of defunct objects orbiting the Earth. Examples of debris include non-operational satellites, rocket bodies, and fragments generated from explosions, collisions, or faulty payload assembly.

Loading next visibility...
Identifier
3843, 1968-097BG
Orbit
LEO
Country
Flag of CISCIS
Related business
Manufacturer
Unknown
Mission
Spacecraft
Bus & Motor
Unknown
Mass
Unknown
Launch date (UTC)
1968-11-01 (57 years ago)
Launch vehicle
Unknown
Launch site
Tyuratam Missile And Space Complex (TTMTR)
Object type
Payload
Rocket body
Debris
Shape & HBR
Unknown shape, 0.1 m
Radar Cross Section
Small (<0.1 m²)

Expand to show TLE details & history
Last TLE update: 1 day ago

TLE from 1 day ago
0 COSMOS 252 DEB
1 03843U 68097BG  26106.52078111  .00000379  00000-0  44842-3 0  9992
2 03843  62.2628 252.8311 0697290  96.2404 271.8426 13.04272824659278
Epoch: 2026-04-16T12:29Z
TLE epoch observation values (Epoch: 2026-04-16T12:29:55.487Z)
Latitude
-0.00003°
Longitude
-139.31725°
Altitude
1,266.985 km
Speed
7.213 km/s
True Right ascension
16h 51m 19s
True Declination
0° 00' 00"
Sunlit
Object was in full shadow at epoch
Visualization orbit readout
Latitude
Unknown
Longitude
Unknown
Altitude
Unknown
Speed
Unknown
Apparent Right ascension
Unknown
Apparent Declination
Unknown
Sunlit
N/A
Visualization observer readout
Local Sidereal Time
01:12:40
Azimuth
Unknown
Elevation
Unknown
Doppler factor
Unknown
Orbital elements
Apogee altitude
1,775.891 km
Perigee altitude
712.87 km
Semi-major axis
7,622.518 km
Eccentricity
0.06973
Inclination
62.2628°
RAAN
252.8311°
Arg. of periapsis
96.2404°
True anomaly
263.85985°
Mean anomaly
271.8426°
Eccentric anomaly
267.85023°
Mean motion
3.26134 °/min
Orbital period
110.38 mins
BSTAR
0.00044842
Loading maneuver chart data...
Computing Atmospheric mass density...

Documentation

Showing up to 5 results
|